"Platform","Muskegon M45 ReCON Buoy"
"Latitude (deg)",43.23241
"Longitude (deg)",-86.46748
"Water Depth (m)",45.0
"Sensor Device","System Power Controller board voltage input"
"Sensor Type","Power input at underwater hub"
"Sensor Units","voltage"
"Measurement","A sample"
"Time means","Time at sample (UTC time zone)"

"Note:","This data was collected for research purposes."
"Note:","Minimal quality checking has been performed so data may contain known or unknown errors."
"Note:","Data provided by NOAA. Please credit NOAA."
"Note:","For more info see www.glerl.noaa.gov/res/recon"

"Time (UTC)","U/W Hub Bus"
"YYYY/MM/DD HH:MM","volts"
2021/05/03 19:47, 47.42
2021/05/03 20:17, 47.12
2021/05/03 20:47, 47.37
2021/05/03 21:17, 46.99
2021/05/03 21:47, 46.73
2021/05/03 22:17, 46.48
2021/05/03 22:47, 46.08
2021/05/03 23:17, 46.02
2021/05/03 23:47, 45.78
2021/05/04 00:17, 47.76
2021/05/04 00:47, 46.87
2021/05/04 01:17, 45.10
2021/05/04 01:47, 44.92
2021/05/04 02:17, 44.79
2021/05/04 02:47, 44.74
2021/05/04 03:17, 44.76
2021/05/04 03:47, 44.73
2021/05/04 04:17, 44.70
2021/05/04 04:47, 44.63
2021/05/04 05:17, 44.61
2021/05/04 05:47, 44.40
2021/05/04 06:17, 44.39
2021/05/04 06:47, 44.60
2021/05/04 07:17, 44.28
2021/05/04 07:47, 44.25
2021/05/04 08:17, 44.16
2021/05/04 08:47, 44.22
2021/05/04 09:17, 44.16
2021/05/04 09:47, 44.15
2021/05/04 10:17, 44.10
2021/05/04 10:47, 44.24
2021/05/04 11:17, 44.11
2021/05/04 11:47, 44.15
2021/05/04 12:17, 44.36
2021/05/04 12:47, 44.77
2021/05/04 13:17, 44.66
2021/05/04 13:47, 45.22
2021/05/04 14:17, 47.12
2021/05/04 14:47, 47.37
2021/05/04 15:17, 48.29
2021/05/04 15:47, 47.62
2021/05/04 16:17, 49.58
2021/05/04 16:47, 49.05
2021/05/04 17:17, 49.69
2021/05/04 17:47, 49.32
2021/05/04 18:17, 48.74
2021/05/04 18:47, 48.34
2021/05/04 19:17, 47.90
2021/05/04 19:47, 48.83
2021/05/04 20:17, 48.96
2021/05/04 20:47, 49.46
2021/05/04 21:17, 48.95
2021/05/04 21:47, 49.51
2021/05/04 22:17, 48.38
2021/05/04 22:47, 51.90
2021/05/04 23:17, 47.39
2021/05/04 23:47, 46.54
2021/05/05 00:17, 45.97
2021/05/05 00:47, 45.63
2021/05/05 01:17, 45.50
2021/05/05 01:47, 45.39
2021/05/05 02:17, 45.48
2021/05/05 02:47, 45.20
2021/05/05 03:17, 45.13
2021/05/05 03:47, 45.13
2021/05/05 04:17, 44.93
2021/05/05 04:47, 44.91
2021/05/05 05:17, 44.83
2021/05/05 05:47, 44.81
2021/05/05 06:17, 44.87
2021/05/05 06:47, 44.75
2021/05/05 07:17, 44.62
2021/05/05 07:47, 44.59
2021/05/05 08:17, 39.31
2021/05/05 08:47, 44.40
2021/05/05 09:17, 44.24
2021/05/05 09:47, 44.24
2021/05/05 10:17, 44.02
2021/05/05 10:47, 44.04
2021/05/05 11:17, 44.23
2021/05/05 11:47, 49.55
2021/05/05 12:17, 50.70
2021/05/05 12:47, 45.86
2021/05/05 13:17, 46.78
2021/05/05 13:47, 48.72
2021/05/05 14:17, 49.79
2021/05/05 14:47, 51.22
2021/05/05 15:17, 49.63
2021/05/05 15:47, 49.67
2021/05/05 16:17, 49.26
2021/05/05 16:47, 49.23
2021/05/05 17:17, 48.92
2021/05/05 17:47, 49.21
2021/05/05 18:17, 49.53
2021/05/05 18:47, 48.80
2021/05/05 19:17, 50.34
2021/05/05 19:47, 51.81
2021/05/05 20:17, 54.00
2021/05/05 20:47, 54.04
2021/05/05 21:17, 53.85
2021/05/05 21:47, 52.57
2021/05/05 22:17, 52.47
2021/05/05 22:47, 52.07
2021/05/05 23:17, 52.60
2021/05/05 23:47, 52.28
2021/05/06 00:17, 47.37
2021/05/06 00:47, 46.20
2021/05/06 01:17, 45.63
2021/05/06 01:47, 45.91
2021/05/06 02:17, 45.74
2021/05/06 02:47, 45.86
2021/05/06 03:17, 45.65
2021/05/06 03:47, 45.62
2021/05/06 04:17, 45.42
2021/05/06 04:47, 45.57
2021/05/06 05:17, 45.30
2021/05/06 05:47, 45.51
2021/05/06 06:17, 45.17
2021/05/06 06:47, 45.40
2021/05/06 07:17, 45.08
2021/05/06 07:47, 45.29
2021/05/06 08:17, 45.00
2021/05/06 08:47, 45.20
2021/05/06 09:17, 45.16
2021/05/06 09:47, 45.09
2021/05/06 10:17, 44.86
2021/05/06 10:47, 44.98
2021/05/06 11:17, 44.91
2021/05/06 11:47, 44.84
2021/05/06 12:17, 44.73
2021/05/06 12:47, 44.82
2021/05/06 13:17, 44.99
2021/05/06 13:47, 37.70
2021/05/06 14:17, 45.08
2021/05/06 14:47, 47.65
2021/05/06 15:17, 45.60
2021/05/06 15:47, 47.44
2021/05/06 16:17, 48.35
2021/05/06 16:47, 48.56
2021/05/06 17:17, 47.21
2021/05/06 17:47, 47.95
2021/05/06 18:17, 49.01
2021/05/06 18:47, 49.73
2021/05/06 19:17, 53.39
2021/05/06 19:47, 53.54
2021/05/06 20:17, 50.30
2021/05/06 20:47, 53.80
2021/05/06 21:17, 53.60
2021/05/06 21:47, 51.97
2021/05/06 22:17, 51.39
2021/05/06 22:47, 52.01
2021/05/06 23:17, 47.95
2021/05/06 23:47, 50.92
2021/05/07 00:17, 47.02
2021/05/07 00:47, 47.16
2021/05/07 01:17, 47.16
2021/05/07 01:47, 45.94
2021/05/07 02:17, 45.92
2021/05/07 02:47, 42.95
2021/05/07 03:17, 37.21
2021/05/07 03:47, 45.39
2021/05/07 04:17, 42.62
2021/05/07 04:47, 37.23
2021/05/07 05:17, 45.41
2021/05/07 05:47, 45.31
2021/05/07 06:17, 45.26
2021/05/07 06:47, 45.07
2021/05/07 07:17, 45.06
2021/05/07 07:47, 44.95
2021/05/07 08:17, 44.88
2021/05/07 08:47, 44.79
2021/05/07 09:17, 44.76
2021/05/07 09:47, 44.77
2021/05/07 10:17, 44.78
2021/05/07 10:47, 44.78
2021/05/07 11:17, 44.75
2021/05/07 11:47, 44.86
2021/05/07 12:17, 44.91
2021/05/07 12:47, 44.71
2021/05/07 13:17, 45.66
2021/05/07 13:47, 44.98
2021/05/07 14:17, 41.97
2021/05/07 14:47, 47.20
2021/05/07 15:17, 49.54
2021/05/07 15:47, 50.40
2021/05/07 16:17, 49.86
2021/05/07 16:47, 48.71
2021/05/07 17:17, 49.03
2021/05/07 17:47, 49.75
2021/05/07 18:17, 49.96
2021/05/07 18:47, 51.73
2021/05/07 19:17, 52.72
2021/05/07 19:47, 52.66
2021/05/07 20:17, 52.62
2021/05/07 20:47, 50.92
2021/05/07 21:17, 51.12
2021/05/07 21:47, 51.54
2021/05/07 22:17, 51.24
2021/05/07 22:47, 51.58
2021/05/07 23:17, 51.30
2021/05/07 23:47, 51.21
2021/05/08 00:17, 51.01
2021/05/08 00:47, 46.19
2021/05/08 01:17, 45.99
2021/05/08 01:47, 45.74
2021/05/08 02:17, 45.75
2021/05/08 02:47, 45.74
2021/05/08 03:17, 45.72
2021/05/08 03:47, 45.64
2021/05/08 04:17, 45.62
2021/05/08 04:47, 45.20
2021/05/08 05:17, 45.58
2021/05/08 05:47, 45.49
2021/05/08 06:17, 45.49
2021/05/08 06:47, 45.49
2021/05/08 07:17, 45.33
2021/05/08 07:47, 45.39
2021/05/08 08:17, 45.28
2021/05/08 08:47, 45.22
2021/05/08 09:17, 45.18
2021/05/08 09:47, 45.16
2021/05/08 10:17, 45.07
2021/05/08 10:47, 46.17
2021/05/08 11:17, 49.36
2021/05/08 11:47, 51.57
2021/05/08 12:17, 52.61
2021/05/08 12:47, 54.08
2021/05/08 13:17, 50.36
2021/05/08 13:47, 54.06
2021/05/08 14:17, 54.04
2021/05/08 14:47, 52.47
2021/05/08 15:17, 52.22
2021/05/08 15:47, 52.52
2021/05/08 16:17, 52.01
2021/05/08 16:47, 52.04
2021/05/08 17:17, 51.96
2021/05/08 17:47, 51.99
2021/05/08 18:17, 51.99
2021/05/08 18:47, 52.13
2021/05/08 19:17, 52.16
2021/05/08 19:47, 52.45
2021/05/08 20:17, 53.53
2021/05/08 20:47, 51.83
2021/05/08 21:17, 51.69
2021/05/08 21:47, 51.74
2021/05/08 22:17, 51.88
2021/05/08 22:47, 51.86
2021/05/08 23:17, 48.36
2021/05/08 23:47, 46.10
2021/05/09 00:17, 45.58
2021/05/09 00:47, 45.93
2021/05/09 01:17, 46.00
2021/05/09 01:47, 49.15
2021/05/09 02:17, 48.88
2021/05/09 02:47, 47.34
2021/05/09 03:17, 47.27
2021/05/09 03:47, 47.23
2021/05/09 04:17, 45.70
2021/05/09 04:47, 45.57
2021/05/09 05:17, 45.62
2021/05/09 05:47, 45.56
2021/05/09 06:17, 45.55
2021/05/09 06:47, 45.59
2021/05/09 07:17, 45.39
2021/05/09 07:47, 45.40
2021/05/09 08:17, 45.33
2021/05/09 08:47, 45.17
2021/05/09 09:17, 45.19
2021/05/09 09:47, 45.15
2021/05/09 10:17, 45.04
2021/05/09 10:47, 44.92
2021/05/09 11:17, 45.12
2021/05/09 11:47, 45.45
2021/05/09 12:17, 46.32
2021/05/09 12:47, 47.52
2021/05/09 13:17, 50.31
2021/05/09 13:47, 49.62
2021/05/09 14:17, 50.34
2021/05/09 14:47, 49.15
2021/05/09 15:17, 49.71
2021/05/09 15:47, 53.01
2021/05/09 16:17, 51.27
2021/05/09 16:47, 52.22
2021/05/09 17:17, 54.08
2021/05/09 17:47, 54.13
2021/05/09 18:17, 51.08
2021/05/09 18:47, 52.72
2021/05/09 19:17, 52.31
2021/05/09 19:47, 52.35
2021/05/09 20:17, 53.33
2021/05/09 20:47, 53.53
2021/05/09 21:17, 53.55
2021/05/09 21:47, 53.53
2021/05/09 22:17, 53.52
2021/05/09 22:47, 53.52
2021/05/09 23:17, 52.36
2021/05/09 23:47, 52.62
2021/05/10 00:17, 53.52
2021/05/10 00:47, 46.38
2021/05/10 01:17, 46.02
2021/05/10 01:47, 47.41
2021/05/10 02:17, 45.81
2021/05/10 02:47, 45.87
2021/05/10 03:17, 45.89
2021/05/10 03:47, 45.83
2021/05/10 04:17, 45.82
2021/05/10 04:47, 45.63
2021/05/10 05:17, 45.62
2021/05/10 05:47, 45.57
2021/05/10 06:17, 45.51
2021/05/10 06:47, 45.51
2021/05/10 07:17, 45.46
2021/05/10 07:47, 45.37
2021/05/10 08:17, 45.26
2021/05/10 08:47, 45.17
2021/05/10 09:17, 45.06
2021/05/10 09:47, 45.00
2021/05/10 10:17, 44.94
2021/05/10 10:47, 44.93
2021/05/10 11:17, 44.84
2021/05/10 11:47, 45.01
2021/05/10 12:17, 47.75
2021/05/10 12:47, 47.82
2021/05/10 13:17, 45.54
2021/05/10 13:47, 45.40
2021/05/10 14:17, 47.95
2021/05/10 14:47, 45.97
2021/05/10 15:17, 47.81
2021/05/10 15:47, 50.92
2021/05/10 16:17, 50.38
2021/05/10 16:47, 52.32
2021/05/10 17:17, 51.91
2021/05/10 17:47, 51.96
2021/05/10 18:17, 51.69
2021/05/10 18:47, 54.14
2021/05/10 19:17, 54.20
2021/05/10 19:47, 54.19
2021/05/10 20:17, 53.71
2021/05/10 20:47, 53.70
2021/05/10 21:17, 53.90
2021/05/10 21:47, 52.72
2021/05/10 22:17, 52.74
2021/05/10 22:47, 52.75
2021/05/10 23:17, 52.72
2021/05/10 23:47, 52.72
2021/05/11 00:17, 52.75
2021/05/11 00:47, 47.16
2021/05/11 01:17, 46.08
2021/05/11 01:47, 45.99
2021/05/11 02:17, 45.94
2021/05/11 02:47, 45.92
2021/05/11 03:17, 45.84
2021/05/11 03:47, 45.80
2021/05/11 04:17, 45.75
2021/05/11 04:47, 45.69
2021/05/11 05:17, 45.60
2021/05/11 05:47, 45.53
2021/05/11 06:17, 45.57
2021/05/11 06:47, 45.48
2021/05/11 07:17, 45.40
2021/05/11 07:47, 45.32
2021/05/11 08:17, 45.18
2021/05/11 08:47, 45.22
2021/05/11 09:17, 45.03
2021/05/11 09:47, 44.96
2021/05/11 10:17, 44.87
2021/05/11 10:47, 46.84
2021/05/11 11:17, 47.20
2021/05/11 11:47, 52.32
2021/05/11 12:17, 53.28
2021/05/11 12:47, 54.85
2021/05/11 13:17, 54.13
2021/05/11 13:47, 54.16
2021/05/11 14:17, 54.17
2021/05/11 14:47, 53.61
2021/05/11 15:17, 53.69
2021/05/11 15:47, 55.09
2021/05/11 16:17, 52.40
2021/05/11 16:47, 54.84
2021/05/11 17:17, 54.97
2021/05/11 17:47, 53.49
2021/05/11 18:17, 54.78
2021/05/11 18:47, 54.44
2021/05/11 19:17, 53.39
2021/05/11 19:47, 53.52
2021/05/11 20:17, 53.74
2021/05/11 20:47, 53.62
2021/05/11 21:17, 53.69
2021/05/11 21:47, 53.77
2021/05/11 22:17, 53.73
2021/05/11 22:47, 53.66
2021/05/11 23:17, 53.80
2021/05/11 23:47, 53.76
2021/05/12 00:17, 52.40
2021/05/12 00:47, 47.40
2021/05/12 01:17, 46.49
2021/05/12 01:47, 45.93
2021/05/12 02:17, 45.91
2021/05/12 02:47, 45.79
2021/05/12 03:17, 47.33
2021/05/12 03:47, 45.82
2021/05/12 04:17, 47.31
2021/05/12 04:47, 45.72
2021/05/12 05:17, 45.59
2021/05/12 05:47, 45.60
2021/05/12 06:17, 45.57
2021/05/12 06:47, 45.50
2021/05/12 07:17, 45.49
2021/05/12 07:47, 45.40
2021/05/12 08:17, 45.32
2021/05/12 08:47, 45.17
2021/05/12 09:17, 45.06
2021/05/12 09:47, 44.99
2021/05/12 10:17, 44.90
2021/05/12 10:47, 47.70
2021/05/12 11:17, 50.85
2021/05/12 11:47, 51.82
2021/05/12 12:17, 53.03
2021/05/12 12:47, 54.01
2021/05/12 13:17, 54.18
2021/05/12 13:47, 54.23
2021/05/12 14:17, 52.52
2021/05/12 14:47, 52.58
2021/05/12 15:17, 53.61
2021/05/12 15:47, 54.35
2021/05/12 16:17, 54.53
2021/05/12 16:47, 53.38
2021/05/12 17:17, 53.03
2021/05/12 17:47, 53.28
2021/05/12 18:17, 53.29
2021/05/12 18:47, 53.86
2021/05/12 19:17, 53.67
2021/05/12 19:47, 53.68
2021/05/12 20:17, 52.50
2021/05/12 20:47, 54.72
2021/05/12 21:17, 52.57
2021/05/12 21:47, 53.52
2021/05/12 22:17, 52.66
2021/05/12 22:47, 53.65
2021/05/12 23:17, 53.68
2021/05/12 23:47, 53.67
2021/05/13 00:17, 53.44
2021/05/13 00:47, 51.96
2021/05/13 01:17, 45.97
2021/05/13 01:47, 45.99
2021/05/13 02:17, 45.91
2021/05/13 02:47, 45.93
2021/05/13 03:17, 45.85
2021/05/13 03:47, 45.80
2021/05/13 04:17, 45.65
2021/05/13 04:47, 45.67
2021/05/13 05:17, 45.58
2021/05/13 05:47, 45.52
2021/05/13 06:17, 45.51
2021/05/13 06:47, 45.49
2021/05/13 07:17, 45.47
2021/05/13 07:47, 45.19
2021/05/13 08:17, 45.20
2021/05/13 08:47, 45.11
2021/05/13 09:17, 45.00
2021/05/13 09:47, 44.86
2021/05/13 10:17, 44.82
2021/05/13 10:47, 48.59
2021/05/13 11:17, 51.47
2021/05/13 11:47, 51.42
2021/05/13 12:17, 52.78
2021/05/13 12:47, 54.00
2021/05/13 13:17, 54.03
2021/05/13 13:47, 54.33
2021/05/13 14:17, 54.45
2021/05/13 14:47, 52.79
2021/05/13 15:17, 52.82
2021/05/13 15:47, 52.78
2021/05/13 16:17, 52.82
2021/05/13 16:47, 52.81
2021/05/13 17:17, 52.76
2021/05/13 17:47, 52.72
2021/05/13 18:17, 52.75
2021/05/13 18:47, 52.78
2021/05/13 19:17, 52.76
2021/05/13 19:47, 52.70
2021/05/13 20:17, 53.92
2021/05/13 20:47, 52.84
2021/05/13 21:17, 52.72
2021/05/13 21:47, 52.76
2021/05/13 22:17, 52.27
2021/05/13 22:47, 52.73
2021/05/13 23:17, 52.73
2021/05/13 23:47, 53.51
2021/05/14 00:17, 53.50
2021/05/14 00:47, 48.24
2021/05/14 01:17, 46.06
2021/05/14 01:47, 46.05
2021/05/14 02:17, 45.95
2021/05/14 02:47, 45.93
2021/05/14 03:17, 45.85
2021/05/14 03:47, 45.86
2021/05/14 04:17, 45.84
2021/05/14 04:47, 45.77
2021/05/14 05:17, 45.76
2021/05/14 05:47, 39.29
2021/05/14 06:17, 45.55
2021/05/14 06:47, 45.52
2021/05/14 07:17, 45.44
2021/05/14 07:47, 45.27
2021/05/14 08:17, 44.98
2021/05/14 08:47, 45.02
2021/05/14 09:17, 44.92
2021/05/14 09:47, 44.94
2021/05/14 10:17, 44.89
2021/05/14 10:47, 46.27
2021/05/14 11:17, 49.89
2021/05/14 11:47, 52.55
2021/05/14 12:17, 52.14
2021/05/14 12:47, 53.77
2021/05/14 13:17, 53.72
2021/05/14 13:47, 53.82
2021/05/14 14:17, 54.20
2021/05/14 14:47, 53.70
2021/05/14 15:17, 52.06
2021/05/14 15:47, 52.56
2021/05/14 16:17, 52.56
2021/05/14 16:47, 52.48
2021/05/14 17:17, 54.87
2021/05/14 17:47, 53.55
2021/05/14 18:17, 52.61
2021/05/14 18:47, 52.61
2021/05/14 19:17, 52.64
2021/05/14 19:47, 52.63
2021/05/14 20:17, 52.59
2021/05/14 20:47, 52.50
2021/05/14 21:17, 52.58
2021/05/14 21:47, 52.62
2021/05/14 22:17, 52.60
2021/05/14 22:47, 52.62
2021/05/14 23:17, 52.37
2021/05/14 23:47, 53.27
2021/05/15 00:17, 53.27
2021/05/15 00:47, 46.00
2021/05/15 01:17, 45.92
2021/05/15 01:47, 37.23
2021/05/15 02:17, 48.39
2021/05/15 02:47, 47.50
2021/05/15 03:17, 47.55
2021/05/15 03:47, 48.74
2021/05/15 04:17, 47.61
2021/05/15 04:47, 45.65
2021/05/15 05:17, 38.66
2021/05/15 05:47, 45.56
2021/05/15 06:17, 45.49
2021/05/15 06:47, 45.32
2021/05/15 07:17, 45.28
2021/05/15 07:47, 45.14
2021/05/15 08:17, 45.02
2021/05/15 08:47, 44.94
2021/05/15 09:17, 44.88
2021/05/15 09:47, 44.85
2021/05/15 10:17, 44.79
2021/05/15 10:47, 44.79
2021/05/15 11:17, 44.80
2021/05/15 11:47, 44.87
2021/05/15 12:17, 45.06
2021/05/15 12:47, 45.39
2021/05/15 13:17, 48.76
2021/05/15 13:47, 52.52
2021/05/15 14:17, 52.62
2021/05/15 14:47, 52.44
2021/05/15 15:17, 52.61
2021/05/15 15:47, 53.72
2021/05/15 16:17, 52.64
2021/05/15 16:47, 53.98
2021/05/15 17:17, 53.76
2021/05/15 17:47, 53.25
2021/05/15 18:17, 53.46
2021/05/15 18:47, 53.44
2021/05/15 19:17, 53.25
2021/05/15 19:47, 53.47
2021/05/15 20:17, 53.18
2021/05/15 20:47, 49.55
2021/05/15 21:17, 53.16
2021/05/15 21:47, 48.30
2021/05/15 22:17, 46.28
2021/05/15 22:47, 46.20
2021/05/15 23:17, 46.08
2021/05/15 23:47, 46.05
2021/05/16 00:17, 45.98
2021/05/16 00:47, 45.95
2021/05/16 01:17, 45.94
2021/05/16 01:47, 45.85
2021/05/16 02:17, 45.83
2021/05/16 02:47, 45.77
2021/05/16 03:17, 45.75
2021/05/16 03:47, 45.59
2021/05/16 04:17, 45.53
2021/05/16 04:47, 45.50
2021/05/16 05:17, 45.30
2021/05/16 05:47, 45.43
2021/05/16 06:17, 45.20
2021/05/16 06:47, 45.22
2021/05/16 07:17, 45.22
2021/05/16 07:47, 45.07
2021/05/16 08:17, 44.92
2021/05/16 08:47, 44.87
2021/05/16 09:17, 44.87
2021/05/16 09:47, 44.82
2021/05/16 10:17, 44.82
2021/05/16 10:47, 44.83
2021/05/16 11:17, 44.81
2021/05/16 11:47, 44.79
2021/05/16 12:17, 44.97
2021/05/16 12:47, 44.89
2021/05/16 13:17, 47.09
2021/05/16 13:47, 47.95
2021/05/16 14:17, 49.13
2021/05/16 14:47, 49.87
2021/05/16 15:17, 52.93
2021/05/16 15:47, 49.38
2021/05/16 16:17, 49.91
2021/05/16 16:47, 51.62
2021/05/16 17:17, 50.58
2021/05/16 17:47, 50.80
2021/05/16 18:17, 51.61
2021/05/16 18:47, 50.31
2021/05/16 19:17, 50.49
2021/05/16 19:47, 53.32
2021/05/16 20:17, 53.79
2021/05/16 20:47, 52.96
2021/05/16 21:17, 51.88
2021/05/16 21:47, 52.90
2021/05/16 22:17, 52.97
2021/05/16 22:47, 54.06
2021/05/16 23:17, 51.86
2021/05/16 23:47, 51.88
2021/05/17 00:17, 49.24
2021/05/17 00:47, 48.60
2021/05/17 01:17, 48.70
2021/05/17 01:47, 47.56
2021/05/17 02:17, 46.04
2021/05/17 02:47, 47.56
2021/05/17 03:17, 45.93
2021/05/17 03:47, 45.87
2021/05/17 04:17, 45.85
2021/05/17 04:47, 45.81
2021/05/17 05:17, 45.70
2021/05/17 05:47, 45.63
2021/05/17 06:17, 45.64
2021/05/17 06:47, 45.57
2021/05/17 07:17, 45.54
2021/05/17 07:47, 45.50
2021/05/17 08:17, 45.43
2021/05/17 08:47, 45.39
2021/05/17 09:17, 45.36
2021/05/17 09:47, 45.29
2021/05/17 10:17, 45.22
2021/05/17 10:47, 46.44
2021/05/17 11:17, 46.86
2021/05/17 11:47, 47.86
2021/05/17 12:17, 50.16
2021/05/17 12:47, 49.79
2021/05/17 13:17, 50.97
2021/05/17 13:47, 51.55
2021/05/17 14:17, 53.14
2021/05/17 14:47, 53.62
2021/05/17 15:17, 53.83
2021/05/17 15:47, 53.86
2021/05/17 16:17, 53.42
2021/05/17 16:47, 53.41
2021/05/17 17:17, 53.54
2021/05/17 17:47, 52.12
2021/05/17 18:17, 53.32
2021/05/17 18:47, 52.11
2021/05/17 19:17, 53.30
2021/05/17 19:47, 52.22
2021/05/17 20:17, 53.34
2021/05/17 20:47, 53.38
2021/05/17 21:17, 53.07
2021/05/17 21:47, 53.27
2021/05/17 22:17, 53.40
2021/05/17 22:47, 53.36
2021/05/17 23:17, 53.30
2021/05/17 23:47, 53.44
2021/05/18 00:17, 53.38
2021/05/18 00:47, 46.88
2021/05/18 01:17, 45.94
2021/05/18 01:47, 46.02
2021/05/18 02:17, 45.93
2021/05/18 02:47, 45.92
2021/05/18 03:17, 45.63
2021/05/18 03:47, 45.76
2021/05/18 04:17, 45.76
2021/05/18 04:47, 45.79
2021/05/18 05:17, 45.62
2021/05/18 05:47, 45.59
2021/05/18 06:17, 45.55
2021/05/18 06:47, 45.50
2021/05/18 07:17, 45.38
2021/05/18 07:47, 45.02
2021/05/18 08:17, 45.29
2021/05/18 08:47, 45.23
2021/05/18 09:17, 45.07
2021/05/18 09:47, 45.10
2021/05/18 10:17, 45.03
2021/05/18 10:47, 46.29
2021/05/18 11:17, 49.50
2021/05/18 11:47, 50.53
2021/05/18 12:17, 50.99
2021/05/18 12:47, 53.09
2021/05/18 13:17, 53.53
2021/05/18 13:47, 53.63
2021/05/18 14:17, 53.63
2021/05/18 14:47, 53.54
2021/05/18 15:17, 53.12
2021/05/18 15:47, 53.15
2021/05/18 16:17, 53.16
2021/05/18 16:47, 53.10
2021/05/18 17:17, 53.08
2021/05/18 17:47, 53.09
2021/05/18 18:17, 53.11
2021/05/18 18:47, 53.13
2021/05/18 19:17, 53.24
2021/05/18 19:47, 53.13
2021/05/18 20:17, 51.78
2021/05/18 20:47, 51.85
2021/05/18 21:17, 50.99
2021/05/18 21:47, 52.95
2021/05/18 22:17, 51.03
2021/05/18 22:47, 46.30
2021/05/18 23:17, 51.16
2021/05/18 23:47, 47.50
2021/05/19 00:17, 46.09
2021/05/19 00:47, 45.83
2021/05/19 01:17, 45.96
2021/05/19 01:47, 45.86
2021/05/19 02:17, 45.90
2021/05/19 02:47, 45.83
2021/05/19 03:17, 45.62
2021/05/19 03:47, 45.75
2021/05/19 04:17, 45.74
2021/05/19 04:47, 45.76
2021/05/19 05:17, 45.54
2021/05/19 05:47, 37.15
2021/05/19 06:17, 45.48
2021/05/19 06:47, 45.26
2021/05/19 07:17, 45.18
2021/05/19 07:47, 45.06
2021/05/19 08:17, 45.05
2021/05/19 08:47, 44.86
2021/05/19 09:17, 44.95
2021/05/19 09:47, 45.00
2021/05/19 10:17, 44.92
2021/05/19 10:47, 44.89
2021/05/19 11:17, 45.21
2021/05/19 11:47, 48.45
2021/05/19 12:17, 46.27
2021/05/19 12:47, 46.19
2021/05/19 13:17, 46.37
2021/05/19 13:47, 48.78
2021/05/19 14:17, 51.90
2021/05/19 14:47, 52.67
2021/05/19 15:17, 50.73
2021/05/19 15:47, 51.77
2021/05/19 16:17, 50.04
2021/05/19 16:47, 48.60
2021/05/19 17:17, 48.71
2021/05/19 17:47, 48.12
2021/05/19 18:17, 49.74
2021/05/19 18:47, 47.44
2021/05/19 19:17, 46.12
2021/05/19 19:47, 49.69
2021/05/19 20:17, 52.43
2021/05/19 20:47, 52.52
2021/05/19 21:17, 53.60
2021/05/19 21:47, 51.75
2021/05/19 22:17, 50.07
2021/05/19 22:47, 49.88
2021/05/19 23:17, 49.98
2021/05/19 23:47, 49.81
2021/05/20 00:17, 46.02
2021/05/20 00:47, 45.44
2021/05/20 01:17, 45.95
2021/05/20 01:47, 45.91
2021/05/20 02:17, 45.79
2021/05/20 02:47, 45.82
2021/05/20 03:17, 45.68
2021/05/20 03:47, 45.66
2021/05/20 04:17, 45.61
2021/05/20 04:47, 45.58
2021/05/20 05:17, 45.51
2021/05/20 05:47, 45.46
2021/05/20 06:17, 45.47
2021/05/20 06:47, 45.42
2021/05/20 07:17, 38.43
2021/05/20 07:47, 45.13
2021/05/20 08:17, 38.42
2021/05/20 08:47, 44.96
2021/05/20 09:17, 38.04
2021/05/20 09:47, 44.84
2021/05/20 10:17, 44.83
2021/05/20 10:47, 36.28
2021/05/20 11:17, 44.73
2021/05/20 11:47, 45.09
2021/05/20 12:17, 45.61
2021/05/20 12:47, 48.45
2021/05/20 13:17, 48.31
2021/05/20 13:47, 48.42
2021/05/20 14:17, 48.44
2021/05/20 14:47, 48.94
2021/05/20 15:17, 48.88
2021/05/20 15:47, 49.80
2021/05/20 16:17, 50.00
2021/05/20 16:47, 50.35
2021/05/20 17:17, 51.74
2021/05/20 17:47, 53.45
2021/05/20 18:17, 53.37
2021/05/20 18:47, 53.42
2021/05/20 19:17, 51.69
2021/05/20 19:47, 51.65
2021/05/20 20:17, 51.67
2021/05/20 20:47, 51.67
2021/05/20 21:17, 51.79
2021/05/20 21:47, 52.22
2021/05/20 22:17, 51.65
2021/05/20 22:47, 51.64
2021/05/20 23:17, 51.65
2021/05/20 23:47, 50.19
2021/05/21 00:17, 47.16
2021/05/21 00:47, 48.89
2021/05/21 01:17, 48.81
2021/05/21 01:47, 46.03
2021/05/21 02:17, 45.90
2021/05/21 02:47, 45.86
2021/05/21 03:17, 45.82
2021/05/21 03:47, 45.77
2021/05/21 04:17, 45.43
2021/05/21 04:47, 45.65
2021/05/21 05:17, 45.57
2021/05/21 05:47, 45.58
2021/05/21 06:17, 45.50
2021/05/21 06:47, 45.37
2021/05/21 07:17, 45.40
2021/05/21 07:47, 45.27
2021/05/21 08:17, 45.32
2021/05/21 08:47, 45.20
2021/05/21 09:17, 44.78
2021/05/21 09:47, 44.97
2021/05/21 10:17, 44.96
2021/05/21 10:47, 44.95
2021/05/21 11:17, 46.67
2021/05/21 11:47, 49.73
2021/05/21 12:17, 50.13
2021/05/21 12:47, 49.52
2021/05/21 13:17, 50.29
2021/05/21 13:47, 50.22
2021/05/21 14:17, 53.29
2021/05/21 14:47, 53.42
2021/05/21 15:17, 53.43
2021/05/21 15:47, 53.51
2021/05/21 16:17, 51.82
2021/05/21 16:47, 51.83
2021/05/21 17:17, 51.80
2021/05/21 17:47, 51.84
2021/05/21 18:17, 53.00
2021/05/21 18:47, 53.00
2021/05/21 19:17, 53.01
2021/05/21 19:47, 51.84
2021/05/21 20:17, 51.64
2021/05/21 20:47, 52.89
2021/05/21 21:17, 52.89
2021/05/21 21:47, 52.67
2021/05/21 22:17, 52.76
2021/05/21 22:47, 52.75
2021/05/21 23:17, 52.75
2021/05/21 23:47, 46.54
2021/05/22 00:17, 47.24
2021/05/22 00:47, 47.55
2021/05/22 01:17, 45.87
2021/05/22 01:47, 45.87
2021/05/22 02:17, 45.79
2021/05/22 02:47, 45.77
2021/05/22 03:17, 45.75
2021/05/22 03:47, 45.70
2021/05/22 04:17, 45.59
2021/05/22 04:47, 45.50
2021/05/22 05:17, 45.53
2021/05/22 05:47, 45.49
2021/05/22 06:17, 45.36
2021/05/22 06:47, 45.34
2021/05/22 07:17, 45.32
2021/05/22 07:47, 45.73
2021/05/22 08:17, 44.80
2021/05/22 08:47, 46.50
2021/05/22 09:17, 44.79
2021/05/22 09:47, 44.87
2021/05/22 10:17, 39.84
2021/05/22 10:47, 44.78
2021/05/22 11:17, 44.78
2021/05/22 11:47, 44.83
2021/05/22 12:17, 44.96
2021/05/22 12:47, 45.52
2021/05/22 13:17, 47.15
2021/05/22 13:47, 45.48
2021/05/22 14:17, 47.98
2021/05/22 14:47, 50.82
2021/05/22 15:17, 51.24
2021/05/22 15:47, 50.27
2021/05/22 16:17, 51.34
2021/05/22 16:47, 51.03
2021/05/22 17:17, 51.81
2021/05/22 17:47, 51.19
2021/05/22 18:17, 52.49
2021/05/22 18:47, 52.70
2021/05/22 19:17, 54.25
2021/05/22 19:47, 52.83
2021/05/22 20:17, 52.88
2021/05/22 20:47, 52.92
2021/05/22 21:17, 52.87
2021/05/22 21:47, 52.93
2021/05/22 22:17, 52.88
2021/05/22 22:47, 52.90
2021/05/22 23:17, 52.86
2021/05/22 23:47, 52.83
2021/05/23 00:17, 51.62
2021/05/23 00:47, 46.34
2021/05/23 01:17, 46.02
2021/05/23 01:47, 45.98
2021/05/23 02:17, 45.96
2021/05/23 02:47, 45.93
2021/05/23 03:17, 45.91
2021/05/23 03:47, 45.91
2021/05/23 04:17, 45.82
2021/05/23 04:47, 45.79
2021/05/23 05:17, 45.44
2021/05/23 05:47, 45.60